Wind_Speed
19 19 19 18 18 17 16 17 18 17 18 20 21 19 18 17 19 19 19 18 17 17 16 15 15 15 14 14 13 13 13 13 13 12 12 12 12 12 12 11 11 12 11 11
20 19 18 19 19 19 18 18 18 17 17 19 20 20 19 17 18 18 19 18 18 17 17 16 16 16 15 14 14 14 13 13 13 13 13 13 13 13 13 13 13 13 12 12
19 18 19 21 21 20 20 19 18 18 19 20 21 20 19 17 17 18 18 18 19 19 18 17 17 17 16 16 15 15 15 14 14 14 14 14 14 14 14 14 14 14 13 13
20 19 21 21 20 20 21 18 18 19 21 21 19 20 18 16 18 18 18 18 19 19 19 18 17 18 17 17 17 17 16 16 15 15 15 15 15 15 15 14 14 15 14 13
19 19 22 22 21 21 20 17 18 19 21 21 20 20 18 16 18 19 19 19 19 20 20 19 18 18 18 18 18 18 18 17 17 16 16 16 17 17 17 16 16 15 14 13
20 21 21 22 21 21 20 19 20 21 22 23 20 20 19 18 18 19 21 20 20 20 21 20 19 19 19 19 19 19 19 19 18 18 18 18 17 17 18 17 16 15 15 14
18 19 21 21 21 20 20 20 20 21 22 21 19 21 20 20 19 21 21 21 21 22 23 23 21 20 20 20 20 19 19 19 19 19 19 19 18 18 18 18 17 16 16 16
18 19 20 21 20 20 21 20 21 21 19 19 19 22 20 21 21 20 20 21 22 23 23 23 23 22 21 21 20 20 20 20 20 20 20 20 19 19 19 18 18 17 17 17
18 18 17 19 20 20 19 20 20 21 19 19 19 19 21 21 22 23 25 23 23 24 24 24 24 24 22 22 21 21 21 21 21 21 21 21 21 20 20 19 19 18 17 17
20 20 19 19 20 20 19 19 19 20 20 19 18 18 20 22 25 25 26 25 24 25 25 24 24 25 23 22 22 22 22 21 21 21 21 21 22 21 20 20 19 19 18 18
21 21 21 22 21 20 20 20 21 21 21 21 20 20 20 22 23 26 27 26 27 26 24 25 25 24 23 22 22 23 23 22 22 22 22 22 22 21 21 20 19 19 19 19
22 22 22 22 21 21 21 21 22 24 23 22 22 22 21 24 25 25 26 24 24 23 24 25 25 24 23 23 23 23 23 22 22 23 23 23 22 22 22 21 20 20 20 20
23 24 23 21 20 22 23 22 22 22 23 22 21 23 23 26 26 25 25 25 24 23 24 25 24 24 24 25 25 24 23 23 23 23 23 23 22 22 22 22 22 22 22 22
24 25 24 22 22 23 24 23 24 23 23 24 23 23 24 28 28 27 28 27 26 25 25 24 24 23 24 25 25 24 24 24 24 24 24 24 24 24 24 24 24 23 23 23
24 25 25 24 22 23 23 24 25 25 25 25 25 25 26 28 28 28 27 26 25 25 25 25 25 23 24 25 26 26 25 25 25 25 25 25 26 26 25 25 25 25 25 24
26 26 25 26 23 23 24 25 24 26 26 26 26 26 27 30 28 27 26 26 26 25 26 26 26 26 26 26 27 27 26 26 26 26 26 27 27 27 27 27 26 26 26 25
26 26 27 27 25 26 25 24 25 26 26 28 27 28 29 30 29 29 28 27 27 26 26 26 26 27 27 27 27 27 27 27 26 27 27 28 28 27 28 28 27 27 27 27
26 25 26 26 27 28 26 25 25 26 27 27 27 28 29 30 31 30 29 29 28 27 27 27 27 27 27 28 28 28 28 27 27 27 28 28 28 27 26 26 27 27 27 26
26 25 25 25 26 27 26 26 27 27 28 29 30 30 31 31 31 31 30 29 28 28 27 27 27 26 27 28 28 28 28 28 28 28 28 27 26 26 26 27 26 27 27 27
27 27 27 26 26 25 26 29 29 29 30 30 30 31 32 31 30 31 30 29 28 28 27 26 26 26 26 27 27 27 27 27 27 27 27 27 26 27 27 26 26 27 27 27
27 28 28 28 28 26 28 30 28 29 30 30 30 30 31 31 31 30 30 29 28 27 27 27 26 25 26 26 26 27 27 26 26 25 26 26 26 26 27 27 27 27 27 27
27 27 28 28 29 28 30 30 30 30 30 30 30 31 31 30 30 29 30 30 29 29 28 27 27 26 26 26 27 27 27 27 26 25 25 26 26 26 26 27 27 27 28 28
27 28 29 30 31 30 30 30 31 30 30 30 30 30 30 29 30 30 30 30 29 28 28 28 27 27 26 27 27 27 26 26 26 25 25 25 26 27 27 27 27 27 27 26
28 27 30 30 30 30 30 31 31 31 31 31 31 31 30 29 29 29 29 29 29 28 28 28 27 26 26 26 27 26 26 26 26 25 26 26 27 27 28 28 28 27 26 26
27 29 28 28 27 28 30 31 31 31 31 32 32 31 31 30 30 29 29 28 28 28 28 28 27 27 26 26 26 27 27 27 26 26 26 26 26 27 27 28 28 27 26 26
26 26 27 28 29 31 30 30 30 30 30 30 31 31 31 30 30 29 28 28 28 28 28 28 28 27 28 27 26 26 26 26 26 26 26 26 26 27 27 27 27 27 26 26
Wind_Direction
233 231 234 236 236 236 230 236 240 243 256 261 263 266 260 261 270 271 273 275 274 272 274 276 280 285 287 290 290 292 291 288 289 288 287 290 292 294 297 298 295 295 297 294
231 232 234 234 235 238 237 238 239 244 252 261 262 266 264 258 264 270 270 273 278 273 273 276 278 280 283 288 288 289 289 290 290 288 287 289 292 293 294 294 293 293 294 293
235 234 234 233 232 234 236 238 239 242 252 257 264 267 266 262 260 266 273 276 278 277 275 274 275 278 280 283 285 285 287 288 287 289 288 288 290 293 293 293 293 292 293 294
233 233 237 241 238 236 241 239 243 243 252 256 261 263 262 259 261 266 272 274 275 275 276 275 273 275 277 279 282 283 282 284 285 287 287 286 287 289 292 293 294 292 294 294
233 234 237 240 241 241 244 243 248 249 251 249 248 258 260 260 266 269 272 273 275 275 274 274 272 272 273 274 277 279 281 283 283 284 285 286 286 287 288 291 291 289 290 292
232 234 239 242 243 242 242 242 244 245 248 251 250 256 264 263 263 268 269 271 275 275 272 271 271 271 271 273 275 276 278 280 280 283 283 284 286 285 285 287 285 286 287 287
235 236 240 245 245 244 242 242 246 249 249 252 256 258 261 266 260 263 267 271 272 272 272 273 272 271 271 271 272 274 275 276 279 281 282 285 285 284 285 286 284 283 283 284
239 240 241 245 244 243 243 241 242 245 249 257 258 258 257 263 264 264 266 267 270 271 271 273 273 270 270 271 272 273 273 275 277 279 280 283 284 283 284 284 282 280 280 282
235 241 240 243 243 239 239 240 242 246 250 256 257 261 261 263 265 267 268 266 268 271 271 270 271 272 270 271 272 272 272 274 276 277 278 280 279 280 281 281 280 280 280 280
234 237 237 241 243 242 241 244 245 243 247 254 258 255 265 270 270 270 270 271 271 270 271 271 270 271 269 270 269 270 270 273 274 275 277 278 278 278 278 278 278 279 279 280
237 238 238 240 242 243 242 238 240 245 248 251 258 260 262 266 269 270 273 274 273 271 269 269 268 269 267 267 267 268 270 271 271 273 276 277 277 277 278 276 276 277 279 279
238 240 242 244 242 244 241 238 239 242 245 247 253 261 264 264 266 268 271 275 277 272 269 267 265 265 267 269 268 268 268 270 270 272 273 275 276 277 277 276 276 278 281 281
241 241 241 239 241 242 242 238 238 246 248 248 250 259 263 268 269 271 271 273 273 271 268 266 263 263 266 268 268 267 268 269 270 271 273 273 274 276 277 276 276 276 279 281
242 240 240 239 241 240 241 240 238 241 245 249 248 253 259 267 270 271 271 270 271 270 268 265 263 263 264 266 267 268 269 269 270 270 271 274 276 276 276 276 277 277 278 280
246 245 243 240 240 244 245 244 241 240 242 248 251 251 254 261 267 269 269 268 269 270 268 265 264 263 263 263 265 268 269 269 270 270 270 272 274 276 277 278 278 278 279 280
248 248 245 243 241 246 246 247 246 244 244 246 249 252 256 260 263 265 265 266 267 267 267 266 265 264 263 263 265 268 271 271 271 271 271 272 274 275 275 277 279 278 279 279
248 249 248 247 244 246 247 250 251 247 245 245 246 248 253 257 261 263 264 266 267 266 266 265 264 263 262 263 265 268 272 272 272 271 271 271 272 273 274 275 277 277 278 278
248 249 250 250 249 248 249 249 250 247 248 250 249 254 257 258 260 263 265 267 267 267 265 265 264 263 262 264 267 269 270 271 271 270 271 272 273 273 274 275 276 277 278 277
251 251 252 252 253 253 251 251 248 248 249 251 252 253 256 258 261 262 264 265 266 265 264 265 265 264 263 264 266 267 270 272 271 270 270 270 272 272 273 273 275 277 276 276
254 255 256 255 253 251 249 252 254 254 255 255 255 254 256 258 260 261 262 264 266 265 265 266 266 265 265 265 266 267 269 271 270 269 268 269 270 270 271 272 273 275 275 277
253 255 255 254 253 251 250 253 255 255 256 256 258 259 261 260 260 261 261 262 264 264 263 264 266 267 266 266 265 266 269 271 271 270 269 269 269 269 270 272 273 274 276 278
251 252 253 254 252 250 249 251 253 256 257 256 257 259 261 262 262 263 262 263 264 264 264 265 266 267 267 266 265 266 269 271 271 270 271 269 268 269 270 272 273 275 277 279
253 253 251 251 250 250 250 253 255 255 256 257 259 260 261 261 261 262 262 263 263 261 261 263 265 266 268 267 266 266 269 271 272 271 270 269 268 268 270 272 274 276 278 280
252 253 253 255 253 252 254 255 257 257 258 259 260 261 261 261 261 262 262 262 262 261 260 262 263 264 266 267 265 265 268 269 270 270 270 270 268 268 268 270 274 277 278 280
251 253 253 253 253 253 253 255 258 259 260 259 260 260 261 261 262 262 262 260 260 261 260 260 262 264 265 266 267 266 267 268 268 268 268 269 269 269 270 271 274 276 278 280
250 252 250 251 253 255 254 255 258 260 261 261 260 260 261 262 262 262 263 261 261 261 260 261 262 263 265 264 267 268 267 267 266 267 268 267 268 269 270 272 274 275 276 278
Height
5850 5854 5856 5859 5862 5865 5867 5869 5872 5873 5873 5871 5871 5871 5872 5871 5872 5872 5871 5870 5871 5871 5871 5871 5870 5870 5870 5870 5870 5870 5869 5869 5868 5868 5867 5867 5866 5866 5865 5865 5864 5864 5863 5862
5847 5849 5853 5856 5859 5861 5863 5865 5867 5869 5869 5868 5867 5868 5867 5868 5869 5869 5868 5867 5867 5867 5868 5868 5868 5868 5868 5868 5867 5867 5867 5867 5866 5866 5865 5864 5864 5864 5863 5863 5863 5862 5861 5861
5843 5848 5849 5851 5854 5856 5858 5860 5862 5864 5864 5864 5864 5864 5863 5864 5865 5865 5865 5864 5864 5864 5864 5865 5865 5865 5865 5865 5865 5865 5864 5864 5864 5863 5863 5863 5862 5862 5861 5861 5860 5859 5859 5858
5839 5843 5845 5847 5849 5851 5853 5856 5858 5859 5860 5859 5861 5860 5860 5859 5860 5861 5862 5861 5861 5861 5860 5861 5861 5861 5861 5861 5861 5861 5861 5861 5861 5861 5860 5860 5860 5859 5859 5858 5857 5857 5856 5855
5835 5839 5840 5842 5845 5847 5849 5852 5853 5854 5855 5856 5856 5856 5857 5856 5857 5857 5857 5857 5857 5857 5856 5857 5858 5858 5858 5858 5858 5858 5858 5858 5858 5858 5858 5857 5857 5857 5856 5855 5854 5854 5853 5852
5831 5834 5836 5838 5840 5842 5845 5847 5848 5849 5849 5850 5851 5851 5852 5852 5853 5853 5853 5853 5853 5853 5852 5852 5853 5853 5854 5854 5854 5854 5854 5855 5855 5855 5854 5854 5854 5853 5853 5852 5851 5851 5850 5850
5825 5828 5831 5833 5835 5837 5840 5842 5844 5844 5844 5845 5848 5847 5848 5848 5848 5848 5848 5849 5849 5849 5848 5848 5848 5849 5850 5850 5850 5850 5851 5851 5851 5851 5851 5850 5850 5850 5849 5849 5848 5847 5847 5846
5821 5824 5826 5828 5830 5833 5835 5837 5840 5841 5842 5843 5844 5843 5844 5844 5843 5843 5844 5844 5844 5844 5843 5844 5843 5843 5845 5845 5846 5846 5846 5846 5846 5846 5846 5846 5846 5845 5845 5845 5844 5844 5843 5843
5818 5820 5822 5823 5825 5828 5830 5832 5835 5837 5837 5838 5839 5839 5837 5838 5839 5839 5839 5839 5839 5839 5839 5839 5839 5838 5839 5840 5841 5841 5841 5842 5842 5842 5842 5842 5841 5841 5841 5841 5840 5840 5840 5839
5812 5815 5817 5819 5820 5822 5825 5828 5829 5830 5831 5832 5834 5834 5834 5833 5833 5834 5833 5833 5833 5833 5833 5833 5833 5832 5832 5834 5835 5836 5836 5837 5837 5837 5837 5837 5837 5836 5836 5836 5836 5836 5835 5835
5807 5809 5812 5813 5815 5818 5820 5822 5823 5825 5827 5828 5829 5831 5829 5828 5828 5827 5827 5827 5827 5827 5828 5828 5827 5827 5828 5829 5830 5830 5831 5831 5831 5832 5832 5832 5832 5832 5831 5831 5831 5831 5831 5830
5800 5802 5804 5807 5810 5811 5814 5816 5818 5820 5821 5822 5823 5826 5823 5822 5821 5821 5821 5820 5821 5820 5821 5821 5822 5822 5822 5823 5824 5825 5825 5825 5826 5826 5826 5826 5826 5826 5826 5826 5826 5826 5826 5825
5794 5796 5799 5802 5806 5806 5807 5809 5812 5813 5814 5815 5818 5821 5818 5816 5815 5814 5814 5814 5815 5816 5816 5816 5816 5817 5818 5818 5818 5818 5819 5820 5820 5820 5820 5820 5820 5821 5821 5821 5820 5821 5821 5820
5787 5789 5793 5796 5797 5798 5800 5803 5805 5806 5808 5810 5811 5813 5812 5811 5810 5809 5809 5808 5809 5809 5809 5810 5810 5811 5812 5812 5812 5812 5813 5813 5814 5814 5814 5814 5814 5814 5815 5815 5814 5815 5814 5814
5781 5783 5786 5788 5791 5792 5794 5796 5798 5800 5801 5804 5805 5805 5804 5803 5802 5803 5803 5803 5804 5804 5804 5804 5804 5804 5805 5806 5806 5806 5806 5807 5807 5807 5808 5808 5808 5808 5808 5808 5808 5808 5808 5808
5774 5776 5778 5781 5784 5786 5787 5789 5791 5793 5795 5796 5797 5798 5797 5795 5796 5796 5797 5797 5797 5797 5798 5798 5799 5799 5799 5799 5799 5799 5799 5800 5800 5801 5801 5801 5801 5801 5801 5801 5801 5801 5801 5801
5767 5769 5772 5774 5777 5778 5781 5783 5784 5785 5787 5788 5789 5790 5788 5787 5789 5789 5790 5790 5790 5791 5791 5792 5792 5792 5792 5792 5792 5792 5792 5793 5793 5793 5794 5794 5794 5794 5794 5794 5793 5793 5794 5794
5761 5762 5765 5767 5770 5771 5776 5775 5776 5777 5778 5779 5780 5780 5781 5782 5782 5782 5783 5783 5783 5784 5784 5785 5785 5785 5785 5785 5785 5785 5785 5786 5786 5786 5786 5786 5786 5786 5786 5786 5786 5787 5787 5786
5753 5755 5758 5760 5762 5764 5767 5767 5768 5769 5770 5772 5772 5773 5773 5774 5774 5775 5775 5775 5776 5777 5777 5777 5777 5778 5778 5778 5778 5778 5778 5778 5778 5778 5778 5779 5779 5779 5779 5778 5779 5780 5780 5779
5747 5749 5752 5753 5755 5757 5759 5758 5760 5762 5762 5763 5764 5765 5765 5766 5767 5767 5767 5768 5769 5769 5770 5770 5770 5770 5770 5770 5770 5771 5771 5771 5770 5770 5771 5771 5772 5772 5772 5772 5772 5772 5772 5772
5741 5742 5744 5746 5747 5749 5750 5750 5753 5755 5755 5755 5756 5757 5758 5759 5759 5759 5760 5761 5761 5761 5762 5763 5763 5763 5763 5763 5763 5763 5764 5763 5763 5762 5763 5764 5764 5765 5765 5765 5765 5765 5765 5764
5734 5736 5737 5738 5740 5743 5742 5743 5745 5745 5746 5747 5748 5749 5750 5750 5751 5751 5752 5753 5753 5754 5755 5755 5756 5756 5756 5756 5756 5756 5756 5756 5756 5755 5756 5756 5757 5757 5758 5758 5758 5758 5757 5757
5727 5729 5729 5731 5733 5733 5733 5735 5736 5737 5738 5739 5740 5741 5741 5742 5743 5744 5745 5745 5745 5746 5747 5748 5748 5748 5748 5749 5749 5749 5749 5749 5749 5748 5749 5749 5749 5750 5751 5751 5751 5750 5750 5749
5719 5720 5722 5723 5724 5725 5726 5727 5728 5729 5730 5731 5732 5732 5733 5734 5735 5735 5736 5737 5737 5738 5739 5740 5740 5740 5741 5741 5741 5742 5742 5742 5742 5742 5742 5742 5743 5743 5743 5743 5743 5743 5742 5742
5712 5713 5714 5715 5716 5717 5719 5719 5720 5721 5723 5723 5724 5724 5725 5726 5726 5727 5728 5729 5729 5730 5731 5732 5733 5733 5733 5734 5734 5734 5734 5735 5735 5735 5735 5735 5735 5736 5736 5736 5735 5735 5735 5734
5704 5705 5707 5708 5709 5710 5711 5712 5713 5713 5714 5715 5716 5716 5717 5717 5718 5719 5720 5720 5721 5722 5723 5724 5725 5726 5726 5726 5727 5727 5727 5728 5728 5728 5728 5728 5728 5728 5728 5728 5728 5727 5727 5727